ASTRA 5B

Last updated on Jan. 21, 2021, 6:16 a.m. UTC

1 39617U 14011B   21020.93938309  .00000163  00000-0  00000-0 0  9992
2 39617   0.0382 328.2111 0003219 323.5328 198.4469  1.00273240 24882
UTC
Height (km)
Latitude
Longitude
Inclination
Orbital Period
UTC large
Height (km)
Speed (km/s)
/
Latitude / Longitude
Inclination (degrees)
Orbital Period (minutes)
Azimuth
Elevation
Range (km)
Doppler Factor
iOS Compass Heading
iOS Angle

Next 30 passes for location: Hong Kong

Rise time Rise Azimuth (degrees) Set time Set Azimuth (degrees) Duration Max altitude (degrees)

No matching passes for this satellites